Flag for U.S.A. Weather past 2 weeks in Aurora, Colorado, U.S.A.

Now
56 °F

Passing clouds.


Feels Like: 55 °F
Forecast: 55 / 78 °F
Wind: 5 mph from Southwest

Location: Buckley Air Force Base

Current Time: Aug 23, 2014 at 6:27:13 AM

Latest Report: Aug 23, 2014 at 4:58 AM


Visibility: 10 mi

Pressure: 29.83 "Hg

Humidity: 99%

Dew point: 55 °F

Location of AuroraLocation

Historic Weather in Aurora — Graph

°F

Aurora temperature yesterday

Maximum temperature yesterday: 68 °F (at 1:58 PM)
Minimum temperature yesterday: 59 °F (at 11:03 PM)
Average temperature yesterday: 63 °F

Past Weeks' High & Low Weather Summary

 TemperatureHumidityPressure
High90 °F (Aug 19, 2:58 PM)99% (Aug 23, 1:58 AM)30.23 "Hg (Aug 23, 1:58 AM)
Low55 °F (Aug 23, 3:58 AM)17% (Aug 16, 4:58 PM)29.67 "Hg (Aug 19, 2:58 PM)
Average70 °F54%29.95 "Hg
* Reported Aug 8 4:58 AM — Aug 23 4:58 AM, Aurora, Weather by CustomWeather, © 2014

Note: Actual official high and low records may vary slightly from our data, if they occured in-between our weather recording intervals... More about our weather records

Advertising

Aurora weather history for previous 24 hours

 ConditionsComfort  
Time TempWeatherWind HumidityBarometerVisibility
4:58 AM
Aug 23
56 °FPassing clouds.5 mph99%29.83 "Hg10 mi
3:58 AM55 °FPassing clouds.6 mph99%29.83 "Hg10 mi
2:58 AM58 °FPassing clouds.8 mph99%29.85 "Hg10 mi
1:58 AM59 °FOvercast.5 mph99%29.86 "Hg10 mi
12:58 AM58 °FPassing clouds.No wind97%29.87 "Hg10 mi
11:58 PM
Aug 22
59 °FOvercast.6 mph96%29.89 "Hg10 mi
11:03 PM59 °FMostly cloudy.7 mph94%30.08 "Hg10 mi
10:58 PM60 °FMostly cloudy.8 mph93%29.89 "Hg10 mi
9:58 PM60 °FPassing clouds.2 mph97%29.91 "Hg10 mi
8:58 PM60 °FPassing clouds.8 mph95%29.92 "Hg10 mi
7:58 PM60 °FPartly sunny.10 mph96%29.89 "Hg10 mi
6:58 PM62 °FPartly sunny.14 mph87%29.88 "Hg10 mi
5:58 PM63 °FBroken clouds.12 mph85%29.91 "Hg10 mi
4:58 PM65 °FPartly sunny.12 mph80%29.93 "Hg10 mi
3:58 PM67 °FMore clouds than sun.8 mph71%29.93 "Hg10 mi
2:58 PM67 °FMostly cloudy.3 mph80%29.95 "Hg10 mi
1:58 PM68 °FLight rain. More clouds than sun.3 mph70%29.96 "Hg10 mi
12:58 PM68 °FLight rain. More clouds than sun.6 mph69%29.97 "Hg10 mi
11:58 AM68 °FDrizzle. More clouds than sun.2 mph63%29.98 "Hg10 mi
10:58 AM67 °FMore clouds than sun.2 mph65%30.00 "Hg10 mi
9:58 AM65 °FMore clouds than sun.6 mph72%30.02 "Hg10 mi
8:58 AM64 °FBroken clouds.2 mph75%30.01 "Hg10 mi
7:58 AM62 °FMostly cloudy.2 mph81%30.01 "Hg10 mi
6:58 AM61 °FMostly cloudy.No wind94%30.01 "Hg10 mi
Weather by CustomWeather, © 2014

See weather overviewHow to use our weather pages